Flag for Turkey Weather past 2 weeks in Mersin, Turkey

Now
91 °F

Scattered clouds.


Feels Like: 97 °F
Forecast: 71 / 97 °F
Wind: 9 mph from Southwest

Location: Adana / Sakirpasa

Current Time: Aug 1, 2015 at 5:21:06 PM

Latest Report: Aug 1, 2015 at 4:50 PM


Visibility: N/A

Pressure: 29.74 "Hg

Humidity: 49%

Dew point: 70 °F

Location of MersinLocation

Historic Weather in Mersin — Graph

°F

Mersin temperature yesterday

Maximum temperature yesterday: 91 °F (at 12:50 PM)
Minimum temperature yesterday: 79 °F (at 1:20 AM)
Average temperature yesterday: 84 °F

Past Weeks' High & Low Weather Summary

 TemperatureHumidityPressure
High95 °F (Jul 19, 1:20 PM)94% (Jul 18, 4:20 AM)29.80 "Hg (Jul 18, 4:20 AM)
Low68 °F (Jul 25, 4:50 AM)26% (Jul 25, 11:50 AM)29.59 "Hg (Jul 20, 4:50 PM)
Average84 °F68%29.68 "Hg
* Reported Jul 17 3:20 PM — Aug 1 3:50 PM, Mersin, Weather by CustomWeather, © 2015

Note: Actual official high and low records may vary slightly from our data, if they occured in-between our weather recording intervals... More about our weather records

Advertising

Mersin weather history for previous 24 hours

 ConditionsComfort  
Time TempWeatherWind HumidityBarometerVisibility
3:50 PM
Sat, Aug 1
93 °FScattered clouds.9 mph49%29.74 "HgN/A
3:20 PM93 °FScattered clouds.9 mph49%29.74 "HgN/A
2:50 PM91 °FScattered clouds.8 mph49%29.74 "HgN/A
2:20 PM93 °FScattered clouds.7 mph44%29.74 "HgN/A
1:50 PM93 °FScattered clouds.10 mph47%29.74 "HgN/A
1:20 PM91 °FScattered clouds.7 mph44%29.74 "HgN/A
12:50 PM93 °FScattered clouds.7 mph39%29.74 "HgN/A
12:20 PM93 °FScattered clouds.5 mph44%29.74 "HgN/A
11:50 AM91 °FScattered clouds.5 mph49%29.74 "HgN/A
11:20 AM90 °FScattered clouds.6 mph52%29.77 "HgN/A
10:50 AM88 °FScattered clouds.5 mph59%29.77 "HgN/A
10:20 AM88 °FScattered clouds.5 mph59%29.74 "HgN/A
9:50 AM88 °FScattered clouds.5 mph59%29.74 "HgN/A
9:20 AM86 °FScattered clouds.2 mph62%29.74 "HgN/A
8:50 AM86 °FScattered clouds.3 mph62%29.74 "HgN/A
8:20 AM84 °FScattered clouds.5 mph66%29.74 "HgN/A
7:50 AM82 °FScattered clouds.5 mph70%29.74 "HgN/A
7:20 AM82 °FPassing clouds.5 mph70%29.74 "HgN/A
6:50 AM81 °FPassing clouds.5 mph74%29.71 "HgN/A
6:20 AM77 °FPassing clouds.5 mph83%29.71 "HgN/A
5:50 AM77 °FPassing clouds.5 mph83%29.71 "HgN/A
5:20 AM79 °FPassing clouds.5 mph74%29.71 "HgN/A
4:50 AM79 °FPassing clouds.6 mph74%29.71 "HgN/A
4:20 AM79 °FPassing clouds.5 mph79%29.71 "HgN/A
3:50 AM81 °FPassing clouds.5 mph74%29.71 "HgN/A
3:20 AM79 °FPassing clouds.5 mph79%29.71 "HgN/A
2:50 AM79 °FPassing clouds.5 mph84%29.68 "HgN/A
2:20 AM79 °FPassing clouds.3 mph84%29.68 "HgN/A
1:50 AM79 °FPassing clouds.2 mph84%29.71 "HgN/A
1:20 AM81 °FPassing clouds.3 mph79%29.71 "HgN/A
12:50 AM79 °FPassing clouds.5 mph84%29.71 "HgN/A
12:20 AM79 °FPassing clouds.5 mph84%29.71 "HgN/A
11:50 PM
Fri, Jul 31
79 °FPassing clouds.5 mph84%29.71 "HgN/A
11:20 PM81 °FPassing clouds.No wind79%29.71 "HgN/A
10:50 PM81 °FPassing clouds.No wind79%29.71 "HgN/A
10:20 PM81 °FPassing clouds.2 mph79%29.71 "HgN/A
9:50 PM81 °FPassing clouds.3 mph79%29.71 "HgN/A
9:20 PM81 °FPassing clouds.2 mph79%29.71 "HgN/A
8:50 PM81 °FPassing clouds.5 mph79%29.71 "HgN/A
8:20 PM82 °FPassing clouds.5 mph70%29.71 "HgN/A
7:50 PM84 °FPassing clouds.6 mph58%29.68 "HgN/A
7:20 PM86 °FPassing clouds.5 mph62%29.68 "HgN/A
6:50 PM86 °FScattered clouds.2 mph59%29.68 "HgN/A
6:20 PM88 °FScattered clouds.6 mph55%29.68 "HgN/A
5:50 PM88 °FScattered clouds.8 mph55%29.68 "HgN/A
5:20 PM88 °FBroken clouds.10 mph59%29.68 "HgN/A
Weather by CustomWeather, © 2015

See weather overviewHow to use our weather pages